Wetterdaten: Donnerstag, 27.06.2013
Datum Zeit Temperatur Luftfeuchte Luftdruck Regen Wind Richtung Richtung Taupunkt Windchill Windben
27.06.2013 00:00 7,9 C 88 % 1028,0 hPa 0,0 l/m 2,3 km/h (1 Bft) O 90 6,0 C 7,8 C 2,1 km/h (1 Bft)
27.06.2013 00:05 7,8 C 87 % 1027,8 hPa 0,0 l/m 2,1 km/h (1 Bft) O-NO 67 5,8 C 7,7 C 2,7 km/h (1 Bft)
27.06.2013 00:10 7,5 C 87 % 1027,8 hPa 0,0 l/m 2,1 km/h (1 Bft) O-SO 112 5,5 C 7,5 C 1,8 km/h (1 Bft)
27.06.2013 00:15 7,4 C 87 % 1027,8 hPa 0,0 l/m 1,6 km/h (1 Bft) O 90 5,4 C 7,5 C 0,0 km/h (0 Bft)
27.06.2013 00:20 7,2 C 87 % 1027,8 hPa 0,0 l/m 0,2 km/h (0 Bft) O 90 5,2 C 7,2 C 0,0 km/h (0 Bft)
27.06.2013 00:25 7,1 C 87 % 1028,0 hPa 0,0 l/m 0,0 km/h (0 Bft) O-NO 67 5,1 C 6,9 C 0,0 km/h (0 Bft)
27.06.2013 00:30 6,9 C 88 % 1028,0 hPa 0,0 l/m 0,0 km/h (0 Bft) NO 45 5,1 C 6,7 C 0,0 km/h (0 Bft)
27.06.2013 00:35 6,9 C 88 % 1028,0 hPa 0,0 l/m 0,0 km/h (0 Bft) NO 45 5,1 C 6,6 C 0,0 km/h (0 Bft)
27.06.2013 00:40 6,8 C 88 % 1028,0 hPa 0,0 l/m 0,0 km/h (0 Bft) NO 45 5,0 C 6,5 C 1,6 km/h (1 Bft)
27.06.2013 00:45 6,9 C 89 % 1027,8 hPa 0,0 l/m 0,0 km/h (0 Bft) NO 45 5,2 C 6,6 C 0,0 km/h (0 Bft)
27.06.2013 00:50 7,0 C 89 % 1027,8 hPa 0,0 l/m 0,0 km/h (0 Bft) NO 45 5,3 C 6,6 C 0,0 km/h (0 Bft)
27.06.2013 00:55 7,0 C 89 % 1027,8 hPa 0,0 l/m 0,0 km/h (0 Bft) O 90 5,3 C 6,6 C 0,0 km/h (0 Bft)
27.06.2013 01:00 7,1 C 89 % 1027,8 hPa 0,0 l/m 0,0 km/h (0 Bft) S-SO 157 5,4 C 6,7 C 0,0 km/h (0 Bft)
27.06.2013 01:05 7,2 C 89 % 1027,5 hPa 0,0 l/m 0,0 km/h (0 Bft) S-SO 157 5,5 C 6,8 C 0,0 km/h (0 Bft)
27.06.2013 01:10 7,2 C 89 % 1027,5 hPa 0,0 l/m 0,0 km/h (0 Bft) NO 45 5,5 C 6,9 C 0,0 km/h (0 Bft)
27.06.2013 01:15 7,2 C 89 % 1027,5 hPa 0,0 l/m 0,0 km/h (0 Bft) N 360 5,5 C 6,9 C 0,0 km/h (0 Bft)
27.06.2013 01:20 7,2 C 89 % 1027,5 hPa 0,0 l/m 0,0 km/h (0 Bft) O 90 5,5 C 6,9 C 0,0 km/h (0 Bft)
27.06.2013 01:25 7,2 C 89 % 1027,3 hPa 0,0 l/m 0,0 km/h (0 Bft) O 90 5,5 C 6,9 C 0,0 km/h (0 Bft)
27.06.2013 01:30 7,1 C 89 % 1027,3 hPa 0,0 l/m 0,0 km/h (0 Bft) S 180 5,4 C 6,8 C 0,0 km/h (0 Bft)
27.06.2013 01:35 7,1 C 89 % 1027,3 hPa 0,0 l/m 0,0 km/h (0 Bft) S-SW 202 5,4 C 6,8 C 0,0 km/h (0 Bft)
27.06.2013 01:40 7,1 C 89 % 1027,3 hPa 0,0 l/m 0,0 km/h (0 Bft) O-SO 112 5,4 C 6,9 C 0,0 km/h (0 Bft)
27.06.2013 01:45 7,1 C 89 % 1027,2 hPa 0,0 l/m 0,0 km/h (0 Bft) O-SO 112 5,4 C 6,8 C 0,0 km/h (0 Bft)
27.06.2013 01:50 7,1 C 89 % 1027,2 hPa 0,0 l/m 0,0 km/h (0 Bft) N-NO 22 5,4 C 6,8 C 0,0 km/h (0 Bft)
27.06.2013 01:55 7,1 C 89 % 1027,2 hPa 0,0 l/m 0,0 km/h (0 Bft) O 90 5,4 C 6,8 C 0,0 km/h (0 Bft)
27.06.2013 02:00 7,0 C 89 % 1027,2 hPa 0,0 l/m 0,0 km/h (0 Bft) O 90 5,3 C 6,8 C 0,0 km/h (0 Bft)
27.06.2013 02:05 6,9 C 89 % 1026,9 hPa 0,0 l/m 0,0 km/h (0 Bft) W 270 5,2 C 6,8 C 1,8 km/h (1 Bft)
27.06.2013 02:10 6,9 C 89 % 1026,9 hPa 0,0 l/m 0,0 km/h (0 Bft) S 180 5,2 C 6,7 C 0,0 km/h (0 Bft)
27.06.2013 02:15 6,9 C 89 % 1026,9 hPa 0,0 l/m 0,0 km/h (0 Bft) W-SW 247 5,2 C 6,7 C 0,0 km/h (0 Bft)
27.06.2013 02:20 6,8 C 89 % 1026,9 hPa 0,0 l/m 0,0 km/h (0 Bft) S-SW 202 5,1 C 6,6 C 0,0 km/h (0 Bft)
27.06.2013 02:25 6,7 C 89 % 1026,7 hPa 0,0 l/m 0,0 km/h (0 Bft) NO 45 5,0 C 6,6 C 0,0 km/h (0 Bft)
27.06.2013 02:30 6,7 C 89 % 1026,7 hPa 0,0 l/m 0,0 km/h (0 Bft) W-SW 247 5,0 C 6,5 C 0,0 km/h (0 Bft)
27.06.2013 02:35 6,7 C 89 % 1026,7 hPa 0,0 l/m 0,0 km/h (0 Bft) NO 45 5,0 C 6,5 C 0,0 km/h (0 Bft)
27.06.2013 02:40 6,7 C 89 % 1026,7 hPa 0,0 l/m 0,0 km/h (0 Bft) O-NO 67 5,0 C 6,4 C 0,0 km/h (0 Bft)
27.06.2013 02:45 6,7 C 89 % 1026,5 hPa 0,0 l/m 0,0 km/h (0 Bft) S-SO 157 5,0 C 6,4 C 0,0 km/h (0 Bft)
27.06.2013 02:50 6,7 C 89 % 1026,5 hPa 0,0 l/m 0,0 km/h (0 Bft) W-SW 247 5,0 C 6,5 C 0,0 km/h (0 Bft)
27.06.2013 02:55 6,7 C 89 % 1026,5 hPa 0,0 l/m 0,0 km/h (0 Bft) S 180 5,0 C 6,5 C 0,0 km/h (0 Bft)
27.06.2013 03:00 6,7 C 89 % 1026,5 hPa 0,0 l/m 0,0 km/h (0 Bft) S 180 5,0 C 6,4 C 0,0 km/h (0 Bft)
27.06.2013 03:05 6,7 C 89 % 1026,3 hPa 0,0 l/m 0,0 km/h (0 Bft) S 180 5,0 C 6,4 C 0,0 km/h (0 Bft)
27.06.2013 03:10 6,7 C 89 % 1026,3 hPa 0,0 l/m 0,0 km/h (0 Bft) S 180 5,0 C 6,3 C 0,0 km/h (0 Bft)
27.06.2013 03:15 6,7 C 89 % 1026,3 hPa 0,0 l/m 0,0 km/h (0 Bft) W-SW 247 5,0 C 6,3 C 0,0 km/h (0 Bft)
27.06.2013 03:20 6,6 C 89 % 1026,3 hPa 0,0 l/m 0,0 km/h (0 Bft) W 270 4,9 C 6,4 C 0,0 km/h (0 Bft)
27.06.2013 03:25 6,7 C 89 % 1025,9 hPa 0,0 l/m 0,0 km/h (0 Bft) SO 135 5,0 C 6,4 C 0,0 km/h (0 Bft)
27.06.2013 03:30 6,7 C 89 % 1025,9 hPa 0,0 l/m 0,0 km/h (0 Bft) NO 45 5,0 C 6,4 C 1,6 km/h (1 Bft)
27.06.2013 03:35 6,7 C 89 % 1025,9 hPa 0,0 l/m 0,2 km/h (0 Bft) N-NO 22 5,0 C 6,4 C 0,0 km/h (0 Bft)
27.06.2013 03:40 6,6 C 89 % 1025,9 hPa 0,0 l/m 0,2 km/h (0 Bft) O 90 4,9 C 6,4 C 0,0 km/h (0 Bft)
27.06.2013 03:45 6,6 C 89 % 1025,7 hPa 0,0 l/m 0,0 km/h (0 Bft) SO 135 4,9 C 6,3 C 0,0 km/h (0 Bft)
27.06.2013 03:50 6,6 C 89 % 1025,7 hPa 0,0 l/m 0,2 km/h (0 Bft) S-SO 157 4,9 C 6,4 C 0,0 km/h (0 Bft)
27.06.2013 03:55 6,6 C 89 % 1025,7 hPa 0,0 l/m 0,0 km/h (0 Bft) W-SW 247 4,9 C 6,4 C 0,0 km/h (0 Bft)
27.06.2013 04:00 6,6 C 89 % 1025,7 hPa 0,0 l/m 0,0 km/h (0 Bft) W 270 4,9 C 6,5 C 0,0 km/h (0 Bft)
27.06.2013 04:05 6,6 C 89 % 1025,6 hPa 0,0 l/m 0,0 km/h (0 Bft) W 270 4,9 C 6,4 C 0,0 km/h (0 Bft)
27.06.2013 04:10 6,6 C 89 % 1025,6 hPa 0,0 l/m 0,0 km/h (0 Bft) NW 315 4,9 C 6,3 C 0,0 km/h (0 Bft)
27.06.2013 04:15 6,6 C 89 % 1025,6 hPa 0,0 l/m 0,0 km/h (0 Bft) N 360 4,9 C 6,3 C 0,0 km/h (0 Bft)
27.06.2013 04:20 6,5 C 89 % 1025,6 hPa 0,0 l/m 0,3 km/h (0 Bft) S 180 4,8 C 6,3 C 0,0 km/h (0 Bft)
27.06.2013 04:25 6,6 C 89 % 1025,4 hPa 0,0 l/m 0,3 km/h (0 Bft) S-SO 157 4,9 C 6,4 C 0,0 km/h (0 Bft)
27.06.2013 04:30 6,6 C 89 % 1025,4 hPa 0,0 l/m 0,0 km/h (0 Bft) S-SO 157 4,9 C 6,3 C 0,0 km/h (0 Bft)
27.06.2013 04:35 6,5 C 89 % 1025,4 hPa 0,0 l/m 0,0 km/h (0 Bft) S-SW 202 4,8 C 6,3 C 0,0 km/h (0 Bft)
27.06.2013 04:40 6,5 C 89 % 1025,4 hPa 0,0 l/m 0,0 km/h (0 Bft) W-SW 247 4,8 C 6,3 C 0,0 km/h (0 Bft)
27.06.2013 04:45 6,5 C 89 % 1025,2 hPa 0,0 l/m 0,0 km/h (0 Bft) W 270 4,8 C 6,3 C 0,0 km/h (0 Bft)
27.06.2013 04:50 6,5 C 89 % 1025,2 hPa 0,0 l/m 0,0 km/h (0 Bft) W 270 4,8 C 6,3 C 0,0 km/h (0 Bft)
27.06.2013 04:55 6,5 C 89 % 1025,2 hPa 0,0 l/m 0,0 km/h (0 Bft) W 270 4,8 C 6,4 C 0,0 km/h (0 Bft)
27.06.2013 05:00 6,5 C 89 % 1025,2 hPa 0,0 l/m 0,2 km/h (0 Bft) NO 45 4,8 C 6,4 C 2,1 km/h (1 Bft)
27.06.2013 05:05 6,5 C 89 % 1025,2 hPa 0,0 l/m 0,0 km/h (0 Bft) W-NW 292 4,8 C 6,5 C 0,0 km/h (0 Bft)
27.06.2013 05:10 6,5 C 89 % 1025,2 hPa 0,0 l/m 0,0 km/h (0 Bft) W-NW 292 4,8 C 6,4 C 0,0 km/h (0 Bft)
27.06.2013 05:15 6,5 C 89 % 1025,2 hPa 0,0 l/m 0,0 km/h (0 Bft) W-NW 292 4,8 C 6,4 C 0,0 km/h (0 Bft)
27.06.2013 05:20 6,5 C 89 % 1025,2 hPa 0,0 l/m 0,0 km/h (0 Bft) N 360 4,8 C 6,4 C 0,0 km/h (0 Bft)
27.06.2013 05:25 6,5 C 89 % 1025,1 hPa 0,0 l/m 0,0 km/h (0 Bft) S 180 4,8 C 6,4 C 0,0 km/h (0 Bft)
27.06.2013 05:30 6,5 C 89 % 1025,1 hPa 0,0 l/m 0,0 km/h (0 Bft) S-SW 202 4,8 C 6,5 C 0,0 km/h (0 Bft)
27.06.2013 05:35 6,5 C 89 % 1025,1 hPa 0,0 l/m 0,2 km/h (0 Bft) W 270 4,8 C 6,5 C 1,6 km/h (1 Bft)
27.06.2013 05:40 6,5 C 89 % 1025,1 hPa 0,0 l/m 0,0 km/h (0 Bft) S 180 4,8 C 6,5 C 0,0 km/h (0 Bft)
27.06.2013 05:45 6,6 C 89 % 1025,0 hPa 0,0 l/m 0,2 km/h (0 Bft) W-SW 247 4,9 C 6,5 C 0,0 km/h (0 Bft)
27.06.2013 05:50 6,6 C 89 % 1025,0 hPa 0,0 l/m 0,0 km/h (0 Bft) W-SW 247 4,9 C 6,6 C 0,0 km/h (0 Bft)
27.06.2013 05:55 6,7 C 89 % 1025,0 hPa 0,0 l/m 0,0 km/h (0 Bft) NO 45 5,0 C 6,6 C 0,0 km/h (0 Bft)
27.06.2013 06:00 6,7 C 89 % 1025,0 hPa 0,0 l/m 0,0 km/h (0 Bft) W-SW 247 5,0 C 6,6 C 0,0 km/h (0 Bft)
27.06.2013 06:05 6,8 C 89 % 1024,9 hPa 0,0 l/m 0,0 km/h (0 Bft) W-SW 247 5,1 C 6,6 C 0,0 km/h (0 Bft)
27.06.2013 06:10 6,8 C 89 % 1024,9 hPa 0,0 l/m 0,2 km/h (0 Bft) W-SW 247 5,1 C 6,7 C 0,0 km/h (0 Bft)
27.06.2013 06:15 6,8 C 89 % 1024,9 hPa 0,0 l/m 0,2 km/h (0 Bft) N-NW 337 5,1 C 6,8 C 0,0 km/h (0 Bft)
27.06.2013 06:20 7,0 C 88 % 1024,9 hPa 0,0 l/m 0,0 km/h (0 Bft) NO 45 5,2 C 6,9 C 0,0 km/h (0 Bft)
27.06.2013 06:25 7,0 C 88 % 1024,8 hPa 0,0 l/m 0,0 km/h (0 Bft) NO 45 5,2 C 6,9 C 0,0 km/h (0 Bft)
27.06.2013 06:30 7,1 C 88 % 1024,8 hPa 0,0 l/m 0,0 km/h (0 Bft) NO 45 5,2 C 6,9 C 0,0 km/h (0 Bft)
27.06.2013 06:35 7,2 C 88 % 1024,8 hPa 0,0 l/m 0,0 km/h (0 Bft) NO 45 5,3 C 7,0 C 0,0 km/h (0 Bft)
27.06.2013 06:40 7,3 C 88 % 1024,8 hPa 0,0 l/m 0,0 km/h (0 Bft) NO 45 5,4 C 7,1 C 0,0 km/h (0 Bft)
27.06.2013 06:45 7,3 C 88 % 1024,8 hPa 0,0 l/m 0,0 km/h (0 Bft) NO 45 5,4 C 7,2 C 0,0 km/h (0 Bft)
27.06.2013 06:50 7,5 C 88 % 1024,8 hPa 0,0 l/m 0,0 km/h (0 Bft) NO 45 5,6 C 7,3 C 0,0 km/h (0 Bft)
27.06.2013 06:55 7,6 C 88 % 1024,8 hPa 0,0 l/m 0,0 km/h (0 Bft) NO 45 5,7 C 7,4 C 0,0 km/h (0 Bft)
27.06.2013 07:00 7,7 C 88 % 1024,8 hPa 0,0 l/m 0,0 km/h (0 Bft) NO 45 5,8 C 7,5 C 0,0 km/h (0 Bft)
27.06.2013 07:05 7,7 C 88 % 1024,6 hPa 0,0 l/m 0,0 km/h (0 Bft) NO 45 5,8 C 7,6 C 0,0 km/h (0 Bft)
27.06.2013 07:10 7,8 C 87 % 1024,6 hPa 0,0 l/m 0,0 km/h (0 Bft) W-NW 292 5,8 C 7,8 C 0,0 km/h (0 Bft)
27.06.2013 07:15 7,9 C 87 % 1024,6 hPa 0,0 l/m 0,0 km/h (0 Bft) W-NW 292 5,9 C 7,9 C 0,0 km/h (0 Bft)
27.06.2013 07:20 7,9 C 87 % 1024,6 hPa 0,0 l/m 0,0 km/h (0 Bft) W-NW 292 5,9 C 8,0 C 0,0 km/h (0 Bft)
27.06.2013 07:25 7,9 C 87 % 1024,8 hPa 0,0 l/m 0,0 km/h (0 Bft) W-NW 292 5,9 C 8,0 C 0,0 km/h (0 Bft)
27.06.2013 07:30 7,9 C 87 % 1024,8 hPa 0,0 l/m 0,0 km/h (0 Bft) S-SO 157 5,9 C 7,9 C 0,0 km/h (0 Bft)
27.06.2013 07:35 7,9 C 87 % 1024,8 hPa 0,0 l/m 0,0 km/h (0 Bft) S 180 5,9 C 7,9 C 0,0 km/h (0 Bft)
27.06.2013 07:40 8,0 C 86 % 1024,8 hPa 0,0 l/m 0,0 km/h (0 Bft) S 180 5,8 C 8,0 C 0,0 km/h (0 Bft)
27.06.2013 07:45 8,1 C 86 % 1024,8 hPa 0,0 l/m 0,0 km/h (0 Bft) S 180 5,9 C 8,1 C 0,0 km/h (0 Bft)
27.06.2013 07:50 8,1 C 86 % 1024,8 hPa 0,0 l/m 0,0 km/h (0 Bft) W-SW 247 5,9 C 8,1 C 0,0 km/h (0 Bft)
27.06.2013 07:55 8,3 C 86 % 1024,8 hPa 0,0 l/m 0,0 km/h (0 Bft) W-SW 247 6,1 C 8,2 C 0,0 km/h (0 Bft)
27.06.2013 08:00 8,5 C 86 % 1024,8 hPa 0,0 l/m 0,0 km/h (0 Bft) NW 315 6,3 C 8,5 C 0,0 km/h (0 Bft)
27.06.2013 08:05 8,7 C 86 % 1024,6 hPa 0,0 l/m 0,0 km/h (0 Bft) N 360 6,5 C 8,7 C 0,0 km/h (0 Bft)
27.06.2013 08:10 9,2 C 85 % 1024,6 hPa 0,0 l/m 0,2 km/h (0 Bft) S-SW 202 6,8 C 9,2 C 0,0 km/h (0 Bft)
27.06.2013 08:15 9,7 C 85 % 1024,6 hPa 0,0 l/m 0,5 km/h (0 Bft) W-SW 247 7,3 C 9,6 C 2,1 km/h (1 Bft)
27.06.2013 08:20 10,1 C 83 % 1024,6 hPa 0,0 l/m 1,1 km/h (1 Bft) NO 45 7,3 C 10,2 C 3,2 km/h (1 Bft)
27.06.2013 08:25 10,9 C 80 % 1024,2 hPa 0,0 l/m 1,1 km/h (1 Bft) W-NW 292 7,6 C 10,6 C 2,7 km/h (1 Bft)
27.06.2013 08:30 10,5 C 77 % 1024,2 hPa 0,0 l/m 1,1 km/h (1 Bft) W-NW 292 6,6 C 11,4 C 3,9 km/h (1 Bft)
27.06.2013 08:35 10,9 C 78 % 1024,2 hPa 0,0 l/m 1,1 km/h (1 Bft) W-NW 292 7,2 C 11,6 C 1,6 km/h (1 Bft)
27.06.2013 08:40 10,9 C 76 % 1024,2 hPa 0,0 l/m 1,4 km/h (1 Bft) W 270 6,8 C 11,8 C 1,9 km/h (1 Bft)
27.06.2013 08:45 11,1 C 75 % 1024,8 hPa 0,0 l/m 1,0 km/h (0 Bft) W-SW 247 6,8 C 11,7 C 0,0 km/h (0 Bft)
27.06.2013 08:50 11,0 C 74 % 1024,8 hPa 0,0 l/m 0,8 km/h (0 Bft) W-SW 247 6,5 C 11,9 C 2,3 km/h (1 Bft)
27.06.2013 08:55 11,0 C 73 % 1024,8 hPa 0,0 l/m 1,0 km/h (0 Bft) W-NW 292 6,4 C 11,9 C 0,0 km/h (0 Bft)
27.06.2013 09:00 11,0 C 73 % 1024,8 hPa 0,0 l/m 1,4 km/h (1 Bft) S 180 6,4 C 11,8 C 2,4 km/h (1 Bft)
27.06.2013 09:05 10,9 C 74 % 1024,8 hPa 0,0 l/m 1,6 km/h (1 Bft) S-SW 202 6,5 C 11,7 C 0,0 km/h (0 Bft)
27.06.2013 09:10 10,9 C 74 % 1024,8 hPa 0,0 l/m 1,0 km/h (0 Bft) W-SW 247 6,5 C 11,6 C 0,0 km/h (0 Bft)
27.06.2013 09:15 11,1 C 75 % 1024,8 hPa 0,0 l/m 0,6 km/h (0 Bft) SW 225 6,8 C 11,6 C 3,1 km/h (1 Bft)
27.06.2013 09:20 11,3 C 74 % 1024,8 hPa 0,0 l/m 1,6 km/h (1 Bft) S 180 6,8 C 11,6 C 2,4 km/h (1 Bft)
27.06.2013 09:25 11,6 C 72 % 1024,8 hPa 0,0 l/m 2,3 km/h (1 Bft) S 180 6,7 C 12,0 C 4,0 km/h (1 Bft)
27.06.2013 09:30 11,7 C 72 % 1024,8 hPa 0,0 l/m 2,9 km/h (1 Bft) W-SW 247 6,8 C 12,1 C 7,1 km/h (2 Bft)
27.06.2013 09:35 11,7 C 72 % 1024,8 hPa 0,0 l/m 3,4 km/h (1 Bft) W 270 6,8 C 12,2 C 3,4 km/h (1 Bft)
27.06.2013 09:40 11,5 C 72 % 1024,8 hPa 0,0 l/m 3,4 km/h (1 Bft) S-SW 202 6,6 C 12,0 C 3,5 km/h (1 Bft)
27.06.2013 09:45 11,5 C 72 % 1024,9 hPa 0,0 l/m 3,2 km/h (1 Bft) S-SW 202 6,6 C 12,0 C 3,1 km/h (1 Bft)
27.06.2013 09:50 11,5 C 71 % 1024,9 hPa 0,0 l/m 3,1 km/h (1 Bft) S 180 6,4 C 12,0 C 4,8 km/h (1 Bft)
27.06.2013 09:55 11,6 C 70 % 1024,9 hPa 0,0 l/m 3,1 km/h (1 Bft) S-SW 202 6,3 C 12,0 C 4,0 km/h (1 Bft)
27.06.2013 10:00 11,5 C 69 % 1024,9 hPa 0,0 l/m 2,6 km/h (1 Bft) W-SW 247 6,0 C 12,0 C 2,9 km/h (1 Bft)
27.06.2013 10:05 11,4 C 69 % 1024,9 hPa 0,0 l/m 2,7 km/h (1 Bft) S 180 5,9 C 12,0 C 2,6 km/h (1 Bft)
27.06.2013 10:10 11,4 C 71 % 1024,9 hPa 0,0 l/m 2,6 km/h (1 Bft) W-NW 292 6,3 C 11,9 C 0,0 km/h (0 Bft)
27.06.2013 10:15 11,5 C 72 % 1024,9 hPa 0,0 l/m 1,9 km/h (1 Bft) S-SW 202 6,6 C 12,0 C 3,5 km/h (1 Bft)
27.06.2013 10:20 11,5 C 70 % 1024,9 hPa 0,0 l/m 1,9 km/h (1 Bft) S 180 6,2 C 12,0 C 4,3 km/h (1 Bft)
27.06.2013 10:25 11,5 C 70 % 1024,6 hPa 0,0 l/m 2,6 km/h (1 Bft) S 180 6,2 C 12,0 C 3,1 km/h (1 Bft)
27.06.2013 10:30 11,7 C 71 % 1024,6 hPa 0,0 l/m 2,9 km/h (1 Bft) W-SW 247 6,6 C 12,1 C 3,2 km/h (1 Bft)
27.06.2013 10:35 11,8 C 70 % 1024,6 hPa 0,0 l/m 2,6 km/h (1 Bft) W-SW 247 6,5 C 12,2 C 2,4 km/h (1 Bft)
27.06.2013 10:40 12,0 C 69 % 1024,6 hPa 0,0 l/m 2,4 km/h (1 Bft) S 180 6,5 C 12,4 C 2,1 km/h (1 Bft)
27.06.2013 10:45 12,2 C 69 % 1025,1 hPa 0,0 l/m 1,9 km/h (1 Bft) W-NW 292 6,7 C 12,7 C 1,6 km/h (1 Bft)
27.06.2013 10:50 12,2 C 69 % 1025,1 hPa 0,0 l/m 1,3 km/h (1 Bft) W 270 6,7 C 13,0 C 0,0 km/h (0 Bft)
27.06.2013 10:55 12,4 C 68 % 1025,1 hPa 0,0 l/m 1,0 km/h (0 Bft) SO 135 6,7 C 13,2 C 0,0 km/h (0 Bft)
27.06.2013 11:00 12,7 C 68 % 1025,1 hPa 0,0 l/m 0,5 km/h (0 Bft) S-SO 157 6,9 C 13,9 C 2,1 km/h (1 Bft)
27.06.2013 11:05 12,7 C 67 % 1025,1 hPa 0,0 l/m 0,8 km/h (0 Bft) O-NO 67 6,7 C 14,0 C 0,0 km/h (0 Bft)
27.06.2013 11:10 12,5 C 67 % 1025,1 hPa 0,0 l/m 0,5 km/h (0 Bft) O 90 6,5 C 14,2 C 0,0 km/h (0 Bft)
27.06.2013 11:15 12,5 C 67 % 1025,1 hPa 0,0 l/m 0,3 km/h (0 Bft) W-SW 247 6,5 C 14,3 C 1,9 km/h (1 Bft)
27.06.2013 11:20 12,5 C 67 % 1025,1 hPa 0,0 l/m 0,3 km/h (0 Bft) W-NW 292 6,5 C 14,4 C 2,3 km/h (1 Bft)
27.06.2013 11:25 12,6 C 65 % 1025,1 hPa 0,0 l/m 0,6 km/h (0 Bft) W-NW 292 6,2 C 14,4 C 0,0 km/h (0 Bft)
27.06.2013 11:30 13,1 C 65 % 1025,1 hPa 0,0 l/m 0,6 km/h (0 Bft) W-NW 292 6,7 C 15,0 C 2,7 km/h (1 Bft)
27.06.2013 11:35 13,3 C 60 % 1025,1 hPa 0,0 l/m 0,6 km/h (0 Bft) NW 315 5,7 C 15,4 C 1,9 km/h (1 Bft)
27.06.2013 11:40 14,2 C 63 % 1025,1 hPa 0,0 l/m 0,8 km/h (0 Bft) S-SO 157 7,3 C 16,0 C 0,0 km/h (0 Bft)
27.06.2013 11:45 14,3 C 62 % 1025,2 hPa 0,0 l/m 0,5 km/h (0 Bft) S 180 7,1 C 16,3 C 0,0 km/h (0 Bft)
27.06.2013 11:50 14,2 C 62 % 1025,2 hPa 0,0 l/m 0,6 km/h (0 Bft) S 180 7,0 C 16,2 C 2,7 km/h (1 Bft)
27.06.2013 11:55 14,0 C 63 % 1025,2 hPa 0,0 l/m 1,1 km/h (1 Bft) W-NW 292 7,1 C 15,8 C 3,9 km/h (1 Bft)
27.06.2013 12:00 13,7 C 62 % 1025,2 hPa 0,0 l/m 1,8 km/h (1 Bft) S 180 6,6 C 15,2 C 3,7 km/h (1 Bft)
27.06.2013 12:05 13,6 C 59 % 1025,3 hPa 0,0 l/m 2,4 km/h (1 Bft) S-SO 157 5,7 C 15,0 C 3,2 km/h (1 Bft)
27.06.2013 12:10 14,0 C 59 % 1025,3 hPa 0,0 l/m 2,7 km/h (1 Bft) S-SW 202 6,1 C 14,9 C 2,9 km/h (1 Bft)
27.06.2013 12:15 14,8 C 57 % 1025,3 hPa 0,0 l/m 2,6 km/h (1 Bft) S-SW 202 6,4 C 15,2 C 3,9 km/h (1 Bft)
27.06.2013 12:20 15,8 C 52 % 1025,3 hPa 0,0 l/m 3,1 km/h (1 Bft) S 180 6,0 C 16,5 C 3,9 km/h (1 Bft)
27.06.2013 12:25 16,0 C 52 % 1025,1 hPa 0,0 l/m 3,4 km/h (1 Bft) W-NW 292 6,2 C 17,1 C 5,3 km/h (1 Bft)
27.06.2013 12:30 16,1 C 50 % 1025,1 hPa 0,0 l/m 3,2 km/h (1 Bft) W 270 5,7 C 17,3 C 2,9 km/h (1 Bft)
27.06.2013 12:35 15,6 C 53 % 1025,1 hPa 0,0 l/m 2,7 km/h (1 Bft) S-SW 202 6,1 C 17,5 C 3,1 km/h (1 Bft)
27.06.2013 12:40 14,5 C 55 % 1025,1 hPa 0,0 l/m 3,4 km/h (1 Bft) SW 225 5,6 C 16,5 C 8,0 km/h (2 Bft)
27.06.2013 12:45 14,2 C 56 % 1025,1 hPa 0,0 l/m 3,7 km/h (1 Bft) W-NW 292 5,6 C 15,8 C 3,9 km/h (1 Bft)
27.06.2013 12:50 14,5 C 56 % 1025,1 hPa 0,0 l/m 2,1 km/h (1 Bft) W-SW 247 5,8 C 15,7 C 3,7 km/h (1 Bft)
27.06.2013 12:55 14,3 C 57 % 1025,1 hPa 0,0 l/m 2,1 km/h (1 Bft) S 180 5,9 C 15,7 C 5,5 km/h (1 Bft)
27.06.2013 13:00 14,0 C 57 % 1025,1 hPa 0,0 l/m 3,7 km/h (1 Bft) W 270 5,6 C 15,2 C 3,2 km/h (1 Bft)
27.06.2013 13:05 14,7 C 55 % 1025,1 hPa 0,0 l/m 4,0 km/h (1 Bft) S-SW 202 5,8 C 15,2 C 3,9 km/h (1 Bft)
27.06.2013 13:10 14,2 C 55 % 1025,1 hPa 0,0 l/m 2,9 km/h (1 Bft) W 270 5,3 C 15,4 C 2,3 km/h (1 Bft)
27.06.2013 13:15 13,9 C 54 % 1025,1 hPa 0,0 l/m 3,1 km/h (1 Bft) W-NW 292 4,7 C 15,3 C 5,1 km/h (1 Bft)
27.06.2013 13:20 14,0 C 56 % 1025,1 hPa 0,0 l/m 3,2 km/h (1 Bft) W 270 5,4 C 15,0 C 2,1 km/h (1 Bft)
27.06.2013 13:25 14,3 C 55 % 1024,9 hPa 0,0 l/m 3,1 km/h (1 Bft) S-SW 202 5,4 C 15,0 C 0,0 km/h (0 Bft)
27.06.2013 13:30 15,2 C 55 % 1024,9 hPa 0,0 l/m 2,4 km/h (1 Bft) W-NW 292 6,2 C 15,6 C 2,4 km/h (1 Bft)
27.06.2013 13:35 15,5 C 52 % 1024,9 hPa 0,0 l/m 2,6 km/h (1 Bft) W 270 5,7 C 16,5 C 5,5 km/h (1 Bft)
27.06.2013 13:40 15,1 C 52 % 1024,9 hPa 0,0 l/m 2,9 km/h (1 Bft) W-SW 247 5,3 C 16,5 C 3,1 km/h (1 Bft)
27.06.2013 13:45 14,3 C 54 % 1024,9 hPa 0,0 l/m 2,3 km/h (1 Bft) N 360 5,1 C 16,3 C 4,2 km/h (1 Bft)
27.06.2013 13:50 14,2 C 56 % 1024,9 hPa 0,0 l/m 1,8 km/h (1 Bft) W 270 5,6 C 15,8 C 2,3 km/h (1 Bft)
27.06.2013 13:55 14,1 C 56 % 1024,9 hPa 0,0 l/m 2,6 km/h (1 Bft) S-SW 202 5,5 C 15,4 C 6,6 km/h (2 Bft)
27.06.2013 14:00 13,9 C 56 % 1024,9 hPa 0,0 l/m 4,5 km/h (1 Bft) S 180 5,3 C 14,9 C 11,4 km/h (2 Bft)
27.06.2013 14:05 13,8 C 56 % 1024,9 hPa 0,0 l/m 5,3 km/h (1 Bft) S 180 5,2 C 14,6 C 8,0 km/h (2 Bft)
27.06.2013 14:10 13,3 C 57 % 1024,9 hPa 0,0 l/m 5,5 km/h (1 Bft) S 180 5,0 C 13,8 C 4,5 km/h (1 Bft)
27.06.2013 14:15 13,7 C 59 % 1024,9 hPa 0,0 l/m 5,3 km/h (1 Bft) W-SW 247 5,8 C 13,7 C 5,8 km/h (2 Bft)
27.06.2013 14:20 13,7 C 63 % 1024,9 hPa 0,0 l/m 5,8 km/h (2 Bft) S-SW 202 6,8 C 13,5 C 11,9 km/h (2 Bft)
27.06.2013 14:25 14,0 C 63 % 1025,2 hPa 0,0 l/m 6,8 km/h (2 Bft) W-NW 292 7,1 C 13,1 C 8,2 km/h (2 Bft)
27.06.2013 14:30 14,0 C 65 % 1025,2 hPa 0,0 l/m 7,2 km/h (2 Bft) S-SW 202 7,5 C 13,0 C 15,3 km/h (3 Bft)
27.06.2013 14:35 13,8 C 66 % 1025,2 hPa 0,0 l/m 6,9 km/h (2 Bft) SO 135 7,6 C 13,6 C 6,4 km/h (2 Bft)
27.06.2013 14:40 13,4 C 66 % 1025,2 hPa 0,0 l/m 6,1 km/h (2 Bft) O 90 7,2 C 14,1 C 9,7 km/h (2 Bft)
27.06.2013 14:45 13,4 C 66 % 1025,2 hPa 0,0 l/m 6,3 km/h (2 Bft) W-SW 247 7,2 C 13,7 C 7,2 km/h (2 Bft)
27.06.2013 14:50 12,5 C 68 % 1025,2 hPa 0,0 l/m 6,8 km/h (2 Bft) W 270 6,8 C 12,2 C 9,2 km/h (2 Bft)
27.06.2013 14:55 12,2 C 71 % 1025,2 hPa 0,0 l/m 6,3 km/h (2 Bft) S-SW 202 7,1 C 11,7 C 3,9 km/h (1 Bft)
27.06.2013 15:00 12,1 C 73 % 1025,2 hPa 0,0 l/m 5,3 km/h (1 Bft) S-SW 202 7,4 C 11,5 C 3,5 km/h (1 Bft)
27.06.2013 15:05 11,9 C 73 % 1025,1 hPa 0,0 l/m 5,0 km/h (1 Bft) W-SW 247 7,2 C 11,3 C 6,3 km/h (2 Bft)
27.06.2013 15:10 12,1 C 73 % 1025,1 hPa 0,0 l/m 5,0 km/h (1 Bft) W 270 7,4 C 11,3 C 6,8 km/h (2 Bft)
27.06.2013 15:15 12,1 C 73 % 1025,1 hPa 0,0 l/m 4,5 km/h (1 Bft) W-SW 247 7,4 C 11,5 C 4,3 km/h (1 Bft)
27.06.2013 15:20 11,4 C 74 % 1025,1 hPa 0,0 l/m 4,7 km/h (1 Bft) W 270 6,9 C 11,2 C 7,2 km/h (2 Bft)
27.06.2013 15:25 11,2 C 75 % 1024,9 hPa 0,0 l/m 5,0 km/h (1 Bft) W-SW 247 6,9 C 10,6 C 3,5 km/h (1 Bft)
27.06.2013 15:30 10,7 C 77 % 1024,9 hPa 0,0 l/m 5,5 km/h (1 Bft) SW 225 6,8 C 9,9 C 7,7 km/h (2 Bft)
27.06.2013 15:35 10,8 C 77 % 1024,9 hPa 0,0 l/m 5,0 km/h (1 Bft) W-SW 247 6,9 C 9,9 C 3,9 km/h (1 Bft)
27.06.2013 15:40 10,4 C 78 % 1024,9 hPa 0,0 l/m 4,3 km/h (1 Bft) SO 135 6,7 C 9,7 C 3,9 km/h (1 Bft)
27.06.2013 15:45 10,3 C 79 % 1024,8 hPa 0,0 l/m 4,2 km/h (1 Bft) W-SW 247 6,8 C 9,6 C 3,4 km/h (1 Bft)
27.06.2013 15:50 10,1 C 82 % 1024,8 hPa 0,0 l/m 4,0 km/h (1 Bft) W-SW 247 7,2 C 9,4 C 3,2 km/h (1 Bft)
27.06.2013 15:55 10,2 C 84 % 1024,8 hPa 0,0 l/m 3,9 km/h (1 Bft) S-SW 202 7,6 C 9,6 C 7,4 km/h (2 Bft)
27.06.2013 16:00 10,2 C 85 % 1024,8 hPa 0,7 l/m 4,2 km/h (1 Bft) S 180 7,8 C 9,6 C 7,2 km/h (2 Bft)
27.06.2013 16:05 9,7 C 84 % 1024,8 hPa 0,0 l/m 5,1 km/h (1 Bft) S 180 7,1 C 9,0 C 9,2 km/h (2 Bft)
27.06.2013 16:10 9,8 C 85 % 1024,8 hPa 0,0 l/m 5,6 km/h (1 Bft) S 180 7,4 C 8,7 C 6,6 km/h (2 Bft)
27.06.2013 16:15 9,9 C 86 % 1024,8 hPa 0,0 l/m 5,0 km/h (1 Bft) SO 135 7,7 C 8,9 C 5,1 km/h (1 Bft)
27.06.2013 16:20 9,7 C 86 % 1024,8 hPa 0,0 l/m 5,0 km/h (1 Bft) S 180 7,5 C 8,9 C 8,2 km/h (2 Bft)
27.06.2013 16:25 9,6 C 87 % 1025,0 hPa 0,0 l/m 5,8 km/h (2 Bft) S 180 7,5 C 8,5 C 5,5 km/h (1 Bft)
27.06.2013 16:30 9,4 C 88 % 1025,0 hPa 0,7 l/m 5,1 km/h (1 Bft) S 180 7,5 C 8,7 C 2,6 km/h (1 Bft)
27.06.2013 16:35 9,6 C 89 % 1025,0 hPa 0,0 l/m 3,9 km/h (1 Bft) SO 135 7,9 C 9,1 C 1,9 km/h (1 Bft)
27.06.2013 16:40 9,6 C 89 % 1025,0 hPa 0,0 l/m 2,6 km/h (1 Bft) SO 135 7,9 C 9,2 C 3,4 km/h (1 Bft)
27.06.2013 16:45 9,7 C 89 % 1024,8 hPa 0,0 l/m 3,1 km/h (1 Bft) O-NO 67 8,0 C 9,3 C 4,5 km/h (1 Bft)
27.06.2013 16:50 9,6 C 90 % 1024,8 hPa 0,0 l/m 3,7 km/h (1 Bft) S 180 8,0 C 9,3 C 4,5 km/h (1 Bft)
27.06.2013 16:55 9,5 C 90 % 1024,8 hPa 0,0 l/m 3,5 km/h (1 Bft) S 180 7,9 C 9,3 C 2,7 km/h (1 Bft)
27.06.2013 17:00 9,5 C 90 % 1024,8 hPa 0,0 l/m 2,1 km/h (1 Bft) S 180 7,9 C 9,5 C 3,4 km/h (1 Bft)
27.06.2013 17:05 9,9 C 90 % 1024,9 hPa 0,0 l/m 1,8 km/h (1 Bft) S 180 8,3 C 9,8 C 2,7 km/h (1 Bft)
27.06.2013 17:10 10,7 C 90 % 1024,9 hPa 0,0 l/m 2,6 km/h (1 Bft) S 180 9,1 C 10,6 C 4,0 km/h (1 Bft)
27.06.2013 17:15 11,3 C 89 % 1024,9 hPa 0,0 l/m 2,7 km/h (1 Bft) SW 225 9,6 C 11,7 C 4,2 km/h (1 Bft)
27.06.2013 17:20 11,1 C 88 % 1024,9 hPa 0,0 l/m 3,5 km/h (1 Bft) S 180 9,2 C 12,5 C 3,2 km/h (1 Bft)
27.06.2013 17:25 11,2 C 87 % 1025,3 hPa 0,0 l/m 3,4 km/h (1 Bft) S 180 9,1 C 12,6 C 5,8 km/h (2 Bft)
27.06.2013 17:30 11,2 C 86 % 1025,3 hPa 0,0 l/m 2,9 km/h (1 Bft) S 180 8,9 C 12,5 C 4,3 km/h (1 Bft)
27.06.2013 17:35 10,9 C 87 % 1025,3 hPa 0,0 l/m 2,9 km/h (1 Bft) S 180 8,8 C 12,2 C 0,0 km/h (0 Bft)
27.06.2013 17:40 10,2 C 86 % 1025,3 hPa 0,0 l/m 2,4 km/h (1 Bft) N-NO 22 8,0 C 11,6 C 2,7 km/h (1 Bft)
27.06.2013 17:45 10,2 C 86 % 1024,6 hPa 0,0 l/m 1,9 km/h (1 Bft) S 180 8,0 C 11,4 C 3,5 km/h (1 Bft)
27.06.2013 17:50 10,3 C 87 % 1024,6 hPa 0,0 l/m 1,6 km/h (1 Bft) O-SO 112 8,2 C 11,3 C 3,1 km/h (1 Bft)
27.06.2013 17:55 10,3 C 87 % 1024,6 hPa 0,0 l/m 1,3 km/h (1 Bft) SO 135 8,2 C 11,3 C 2,4 km/h (1 Bft)
27.06.2013 18:00 10,2 C 88 % 1024,6 hPa 0,0 l/m 1,0 km/h (0 Bft) S-SW 202 8,3 C 11,5 C 4,5 km/h (1 Bft)
27.06.2013 18:05 10,2 C 88 % 1024,4 hPa 0,0 l/m 1,4 km/h (1 Bft) S-SO 157 8,3 C 11,4 C 2,6 km/h (1 Bft)
27.06.2013 18:10 10,5 C 88 % 1024,4 hPa 0,0 l/m 2,4 km/h (1 Bft) S-SO 157 8,6 C 11,3 C 3,4 km/h (1 Bft)
27.06.2013 18:15 10,8 C 88 % 1024,4 hPa 0,0 l/m 2,1 km/h (1 Bft) S-SW 202 8,9 C 11,8 C 1,9 km/h (1 Bft)
27.06.2013 18:20 10,8 C 86 % 1024,4 hPa 0,0 l/m 2,6 km/h (1 Bft) S 180 8,6 C 12,3 C 4,7 km/h (1 Bft)
27.06.2013 18:25 10,7 C 85 % 1024,8 hPa 0,0 l/m 3,1 km/h (1 Bft) S-SW 202 8,3 C 12,5 C 3,7 km/h (1 Bft)
27.06.2013 18:30 11,4 C 84 % 1024,8 hPa 0,0 l/m 2,9 km/h (1 Bft) S-SW 202 8,8 C 13,7 C 3,4 km/h (1 Bft)
27.06.2013 18:35 11,3 C 84 % 1024,8 hPa 0,0 l/m 2,6 km/h (1 Bft) S 180 8,7 C 13,8 C 4,5 km/h (1 Bft)
27.06.2013 18:40 11,1 C 84 % 1024,8 hPa 0,0 l/m 2,1 km/h (1 Bft) O-SO 112 8,5 C 13,6 C 1,8 km/h (1 Bft)
27.06.2013 18:45 11,0 C 85 % 1024,9 hPa 0,0 l/m 2,3 km/h (1 Bft) S 180 8,6 C 13,2 C 3,9 km/h (1 Bft)
27.06.2013 18:50 10,9 C 86 % 1024,9 hPa 0,0 l/m 3,5 km/h (1 Bft) S 180 8,7 C 12,4 C 2,1 km/h (1 Bft)
27.06.2013 18:55 10,9 C 86 % 1024,9 hPa 0,0 l/m 3,4 km/h (1 Bft) S-SW 202 8,7 C 12,2 C 3,1 km/h (1 Bft)
27.06.2013 19:00 11,0 C 86 % 1024,9 hPa 0,0 l/m 3,1 km/h (1 Bft) S-SW 202 8,7 C 11,8 C 4,0 km/h (1 Bft)
27.06.2013 19:05 10,8 C 86 % 1024,2 hPa 0,0 l/m 3,9 km/h (1 Bft) S-SO 157 8,6 C 11,5 C 5,3 km/h (1 Bft)
27.06.2013 19:10 10,7 C 87 % 1024,2 hPa 0,0 l/m 3,7 km/h (1 Bft) S-SO 157 8,6 C 11,3 C 4,0 km/h (1 Bft)
27.06.2013 19:15 10,6 C 86 % 1024,2 hPa 0,0 l/m 3,5 km/h (1 Bft) S-SO 157 8,4 C 11,2 C 2,7 km/h (1 Bft)
27.06.2013 19:20 10,7 C 87 % 1024,2 hPa 0,0 l/m 2,4 km/h (1 Bft) W-SW 247 8,6 C 11,3 C 3,2 km/h (1 Bft)
27.06.2013 19:25 10,8 C 88 % 1024,1 hPa 0,0 l/m 1,6 km/h (1 Bft) S-SO 157 8,9 C 11,3 C 0,0 km/h (0 Bft)
27.06.2013 19:30 10,9 C 88 % 1024,1 hPa 0,0 l/m 1,4 km/h (1 Bft) S-SW 202 9,0 C 11,4 C 3,2 km/h (1 Bft)
27.06.2013 19:35 10,9 C 88 % 1024,1 hPa 0,0 l/m 1,1 km/h (1 Bft) S 180 9,0 C 12,0 C 3,2 km/h (1 Bft)
27.06.2013 19:40 11,0 C 88 % 1024,1 hPa 0,0 l/m 1,4 km/h (1 Bft) S 180 9,1 C 12,0 C 2,7 km/h (1 Bft)
27.06.2013 19:45 10,7 C 87 % 1023,9 hPa 0,0 l/m 1,8 km/h (1 Bft) S-SO 157 8,6 C 12,3 C 0,0 km/h (0 Bft)
27.06.2013 19:50 10,3 C 87 % 1023,9 hPa 0,0 l/m 1,1 km/h (1 Bft) S 180 8,2 C 12,3 C 0,0 km/h (0 Bft)
27.06.2013 19:55 10,5 C 87 % 1023,9 hPa 0,0 l/m 0,3 km/h (0 Bft) S 180 8,4 C 12,5 C 0,0 km/h (0 Bft)
27.06.2013 20:00 10,8 C 87 % 1023,9 hPa 0,0 l/m 0,2 km/h (0 Bft) S 180 8,7 C 13,4 C 1,8 km/h (1 Bft)
27.06.2013 20:05 10,8 C 87 % 1023,7 hPa 0,0 l/m 0,5 km/h (0 Bft) S 180 8,7 C 14,1 C 2,3 km/h (1 Bft)
27.06.2013 20:10 10,8 C 87 % 1023,7 hPa 0,0 l/m 0,8 km/h (0 Bft) S-SO 157 8,7 C 14,8 C 0,0 km/h (0 Bft)
27.06.2013 20:15 11,0 C 87 % 1023,7 hPa 0,0 l/m 0,6 km/h (0 Bft) S 180 8,9 C 15,0 C 0,0 km/h (0 Bft)
27.06.2013 20:20 11,1 C 87 % 1023,7 hPa 0,0 l/m 0,3 km/h (0 Bft) S 180 9,0 C 15,0 C 0,0 km/h (0 Bft)
27.06.2013 20:25 10,8 C 87 % 1023,8 hPa 0,0 l/m 0,6 km/h (0 Bft) S 180 8,7 C 14,0 C 0,0 km/h (0 Bft)
27.06.2013 20:30 10,4 C 86 % 1023,8 hPa 0,0 l/m 0,6 km/h (0 Bft) O-SO 112 8,2 C 13,0 C 0,0 km/h (0 Bft)
27.06.2013 20:35 10,1 C 86 % 1023,8 hPa 0,0 l/m 0,3 km/h (0 Bft) O-SO 112 7,9 C 12,3 C 0,0 km/h (0 Bft)
27.06.2013 20:40 10,0 C 87 % 1023,8 hPa 0,0 l/m 0,0 km/h (0 Bft) NO 45 7,9 C 11,4 C 0,0 km/h (0 Bft)
27.06.2013 20:45 9,7 C 87 % 1023,8 hPa 0,0 l/m 0,0 km/h (0 Bft) NO 45 7,6 C 11,0 C 0,0 km/h (0 Bft)
27.06.2013 20:50 9,4 C 86 % 1023,8 hPa 0,0 l/m 0,0 km/h (0 Bft) O 90 7,2 C 10,3 C 0,0 km/h (0 Bft)
27.06.2013 20:55 9,3 C 86 % 1023,8 hPa 0,0 l/m 0,2 km/h (0 Bft) O 90 7,1 C 10,0 C 0,0 km/h (0 Bft)
27.06.2013 21:00 9,2 C 87 % 1023,8 hPa 0,0 l/m 0,5 km/h (0 Bft) NO 45 7,2 C 9,7 C 3,1 km/h (1 Bft)
27.06.2013 21:05 9,2 C 87 % 1023,9 hPa 0,0 l/m 0,6 km/h (0 Bft) NO 45 7,2 C 9,6 C 2,3 km/h (1 Bft)
27.06.2013 21:10 9,1 C 87 % 1023,9 hPa 0,0 l/m 1,0 km/h (0 Bft) NO 45 7,1 C 9,3 C 1,9 km/h (1 Bft)
27.06.2013 21:15 9,0 C 87 % 1023,9 hPa 0,0 l/m 0,8 km/h (0 Bft) NO 45 7,0 C 9,3 C 2,3 km/h (1 Bft)
27.06.2013 21:20 9,0 C 88 % 1023,9 hPa 0,0 l/m 0,6 km/h (0 Bft) O 90 7,1 C 9,1 C 0,0 km/h (0 Bft)
27.06.2013 21:25 9,0 C 88 % 1023,9 hPa 0,0 l/m 0,5 km/h (0 Bft) O-NO 67 7,1 C 9,0 C 0,0 km/h (0 Bft)
27.06.2013 21:30 8,8 C 89 % 1023,9 hPa 0,0 l/m 0,0 km/h (0 Bft) N-NO 22 7,1 C 8,8 C 0,0 km/h (0 Bft)
27.06.2013 21:35 8,7 C 89 % 1023,9 hPa 0,0 l/m 0,0 km/h (0 Bft) O 90 7,0 C 8,7 C 0,0 km/h (0 Bft)
27.06.2013 21:40 8,6 C 89 % 1023,9 hPa 0,0 l/m 0,0 km/h (0 Bft) O-NO 67 6,9 C 8,6 C 0,0 km/h (0 Bft)
27.06.2013 21:45 8,6 C 89 % 1023,9 hPa 0,0 l/m 0,2 km/h (0 Bft) NO 45 6,9 C 8,5 C 1,9 km/h (1 Bft)
27.06.2013 21:50 8,5 C 89 % 1023,9 hPa 0,0 l/m 0,5 km/h (0 Bft) NO 45 6,8 C 8,4 C 0,0 km/h (0 Bft)
27.06.2013 21:55 8,4 C 89 % 1023,9 hPa 0,0 l/m 1,3 km/h (1 Bft) NO 45 6,7 C 8,3 C 3,7 km/h (1 Bft)
27.06.2013 22:00 8,3 C 89 % 1023,9 hPa 0,0 l/m 1,4 km/h (1 Bft) O 90 6,6 C 8,2 C 1,9 km/h (1 Bft)
27.06.2013 22:05 8,2 C 89 % 1023,8 hPa 0,0 l/m 1,1 km/h (1 Bft) NO 45 6,5 C 8,1 C 2,3 km/h (1 Bft)
27.06.2013 22:10 8,1 C 89 % 1023,8 hPa 0,0 l/m 1,0 km/h (0 Bft) NO 45 6,4 C 8,0 C 0,0 km/h (0 Bft)
27.06.2013 22:15 8,1 C 89 % 1023,8 hPa 0,0 l/m 0,8 km/h (0 Bft) O-NO 67 6,4 C 8,0 C 0,0 km/h (0 Bft)
27.06.2013 22:20 8,1 C 89 % 1023,8 hPa 0,0 l/m 0,5 km/h (0 Bft) O-NO 67 6,4 C 7,9 C 1,9 km/h (1 Bft)
27.06.2013 22:25 8,1 C 89 % 1023,8 hPa 0,0 l/m 0,6 km/h (0 Bft) NO 45 6,4 C 7,9 C 0,0 km/h (0 Bft)
27.06.2013 22:30 8,1 C 89 % 1023,8 hPa 0,0 l/m 0,3 km/h (0 Bft) O 90 6,4 C 7,8 C 0,0 km/h (0 Bft)
27.06.2013 22:35 8,1 C 89 % 1023,8 hPa 0,0 l/m 0,0 km/h (0 Bft) O 90 6,4 C 7,8 C 0,0 km/h (0 Bft)
27.06.2013 22:40 8,1 C 89 % 1023,8 hPa 0,0 l/m 0,0 km/h (0 Bft) NO 45 6,4 C 7,9 C 0,0 km/h (0 Bft)
27.06.2013 22:45 8,2 C 89 % 1023,8 hPa 0,0 l/m 0,8 km/h (0 Bft) NO 45 6,5 C 7,9 C 3,4 km/h (1 Bft)
27.06.2013 22:50 8,2 C 89 % 1023,8 hPa 0,0 l/m 1,6 km/h (1 Bft) O-NO 67 6,5 C 8,1 C 1,9 km/h (1 Bft)
27.06.2013 22:55 8,2 C 89 % 1023,8 hPa 0,0 l/m 1,3 km/h (1 Bft) N 360 6,5 C 8,1 C 0,0 km/h (0 Bft)
27.06.2013 23:00 8,2 C 89 % 1023,8 hPa 0,0 l/m 0,6 km/h (0 Bft) N-NO 22 6,5 C 8,1 C 2,3 km/h (1 Bft)
27.06.2013 23:05 8,1 C 89 % 1023,9 hPa 0,0 l/m 0,2 km/h (0 Bft) O-SO 112 6,4 C 8,1 C 0,0 km/h (0 Bft)
27.06.2013 23:10 8,1 C 89 % 1023,9 hPa 0,0 l/m 0,3 km/h (0 Bft) O-NO 67 6,4 C 8,0 C 2,9 km/h (1 Bft)
27.06.2013 23:15 8,1 C 89 % 1023,9 hPa 0,0 l/m 0,5 km/h (0 Bft) O-SO 112 6,4 C 8,0 C 0,0 km/h (0 Bft)
27.06.2013 23:20 8,1 C 90 % 1023,9 hPa 0,0 l/m 0,8 km/h (0 Bft) O 90 6,6 C 8,0 C 0,0 km/h (0 Bft)
27.06.2013 23:25 8,1 C 90 % 1023,9 hPa 0,0 l/m 0,5 km/h (0 Bft) O-NO 67 6,6 C 8,0 C 2,1 km/h (1 Bft)
27.06.2013 23:30 8,1 C 90 % 1023,9 hPa 0,0 l/m 0,2 km/h (0 Bft) O-NO 67 6,6 C 8,0 C 0,0 km/h (0 Bft)
27.06.2013 23:35 8,0 C 90 % 1023,9 hPa 0,0 l/m 0,2 km/h (0 Bft) O 90 6,5 C 7,9 C 0,0 km/h (0 Bft)
27.06.2013 23:40 8,0 C 90 % 1023,9 hPa 0,0 l/m 0,0 km/h (0 Bft) O 90 6,5 C 7,9 C 0,0 km/h (0 Bft)
27.06.2013 23:45 8,0 C 90 % 1023,8 hPa 0,0 l/m 0,0 km/h (0 Bft) N 360 6,5 C 7,8 C 0,0 km/h (0 Bft)
27.06.2013 23:50 8,0 C 90 % 1023,8 hPa 0,0 l/m 0,0 km/h (0 Bft) O 90 6,5 C 7,8 C 0,0 km/h (0 Bft)
27.06.2013 23:55 8,0 C 90 % 1023,8 hPa 0,0 l/m 0,0 km/h (0 Bft) SW 225 6,5 C 7,8 C 0,0 km/h (0 Bft)
_ Min-Zeit 05:40 12:30 20:20 - 23:55 - - 13:15 04:50 23:55
Minimum _ 6,5 C 50 % 1023,7 hPa - 0,0 km/h (0 Bft) - - 4,7 C 6,3 C 0,0 km/h (0 Bft)
_ Max-Zeit 12:30 23:55 00:40 16:30 14:30 - - 17:15 12:35 14:30
Maximum _ 16,1 C 90 % 1028,0 hPa 0,7 l/m 7,2 km/h
S-SW (2 Bft)
- - 9,6 C 17,5 C 15,3 km/h
S-SW (3 Bft)
Durchschnitt _ 9,7 C 81 % 1025,1 hPa #1,4 l/m 1,5 km/h (1 Bft) S - 6,5 C 10,1 C 2,0 km/h (1 Bft)